[[{"header":{"parameterUnit":"m.s-1","parameterCategory":1,"la1":30.2991,"la2":30.254,"lo1":-89.0895,"lo2":-89.0444,"dy":0.0017,"dx":0.0017,"nx":28,"ny":28,"refTime":"2024-09-27T09:00:00:Z","depth":0,"parameterNumber":2,"parameterNumberName":"U-component_of_WINDS"},"data":[0,0,0,0,0,0,0,0,0,0,0,0,0,0,0,0,0,0,0,0,0,0,0,0,0,0,0,0,0,0,0,0,0,0,0,0,0,0,0,0,0,0,0,0,0,0,0,0,0,0,0,0,0,0,0,0,0,0,5.7889,5.7892,0,5.8171,5.8175,5.8178,5.8141,5.8136,5.8132,5.8127,5.8422,5.8433,5.8445,0,0,0,0,0,0,0,0,0,0,0,0,0,5.7319,5.7329,5.7888,5.7892,5.7896,5.8171,5.8175,5.8179,5.8142,5.8136,5.8131,5.8125,5.8418,5.8432,5.8447,0,0,0,0,0,0,0,0,0,0,0,0,0,5.758,5.7333,5.7888,5.791,5.7915,5.817,5.8175,5.818,5.8143,5.8136,5.8129,5.8123,5.8413,5.8431,5.8449,5.8701,0,0,5.8504,5.8512,0,0,0,0,0,0,0,0,5.7566,5.7601,5.7903,5.7909,5.7915,5.8114,5.8082,5.8354,5.8145,5.8057,5.8127,5.8119,5.8325,5.835,5.8419,5.8714,5.8727,5.8506,5.8517,5.8525,5.853,0,0,0,0,0,0,0,5.7548,5.7589,5.8,5.7908,5.7915,5.7907,5.7936,5.8133,5.8227,5.8064,5.8062,5.8096,5.8327,5.8401,5.8425,5.8731,5.8505,5.8522,5.8533,5.854,5.9244,5.9251,0,0,0,0,0,0,5.7523,5.7574,5.7991,5.8009,5.7719,5.7923,5.7956,5.8057,5.8224,5.8243,5.8101,5.8093,5.8373,5.8404,5.8435,5.8738,5.8525,5.8542,5.8552,5.9236,5.9246,5.9254,0,0,0,0,0,0,5.7511,5.7561,5.798,5.7791,5.7844,5.794,5.8054,5.8066,5.814,5.8253,5.8269,5.816,5.8369,5.841,5.8634,5.8748,5.855,5.8567,5.9227,5.9239,5.925,5.9348,0,0,0,0,0,0,5.7495,5.7557,5.7653,5.7794,5.7854,5.8173,5.8061,5.8077,5.8171,5.8163,5.8312,5.833,5.8367,5.8607,5.8652,5.877,5.8581,5.9217,5.9232,5.9246,5.9335,5.9361,5.9384,0,0,0,0,0,5.7475,5.7671,5.7658,5.7709,5.7977,5.818,5.8215,5.8252,5.8181,5.8278,5.835,5.8325,5.8729,5.863,5.868,5.8805,5.921,5.9228,5.9245,5.9324,5.9356,5.9383,0,0,0,0,0,0,5.7545,5.769,5.7677,5.7925,5.804,5.8173,5.8298,5.8286,5.8425,5.8411,5.8453,5.8487,5.8712,5.8782,5.8669,5.9056,5.896,5.8988,5.9002,5.9034,5.9058,5.9036,5.8596,0,0,0,0,0,5.7588,5.774,5.786,5.8067,5.8125,5.8202,5.8292,5.831,5.8432,5.8481,5.8569,5.8688,5.8841,5.8942,5.909,5.9345,5.9375,5.9456,5.948,5.95,5.9524,5.966,5.9696,5.9311,5.9311,5.9311,0,0,5.7682,5.778,5.7874,5.8084,5.8175,5.8331,5.8243,5.8414,5.853,5.8507,5.8722,5.8791,5.8927,5.9167,5.9277,5.9232,5.9637,5.9522,5.9537,5.955,5.9682,5.9718,5.975,5.9323,5.9321,5.9319,0,0,5.793,5.8021,5.8201,5.8293,5.8431,5.848,5.8524,5.8659,5.8702,5.8919,5.8904,5.9043,5.9308,5.9404,5.9488,5.9769,5.975,5.9817,5.9945,6.0077,6.0107,6.0134,6.0232,6.0267,5.984,5.984,5.984,0,5.8028,5.8262,5.8296,5.8467,5.8558,5.8543,5.8725,5.8814,5.8994,5.9058,5.9004,5.9333,5.9424,5.9684,5.9752,5.9821,5.9871,5.9799,6.01,6.0128,6.0153,6.0247,6.0283,5.9847,5.9846,5.9846,5.9845,0,5.8374,5.8537,5.8666,5.8837,5.8944,5.912,5.918,5.9284,5.9293,5.9347,5.9566,5.9675,5.9842,5.9905,5.9917,6.0167,6.0134,6.009,5.9994,6.0196,6.0284,6.0321,5.9857,5.9854,5.9852,5.9851,0,0,5.8676,5.886,5.8907,5.8982,5.9132,5.9259,5.9434,5.9595,5.9682,5.9807,5.9953,6.0175,6.0134,6.0229,6.0251,6.0368,6.058,6.031,6.0314,6.0353,6.0858,6.0887,6.0928,6.0569,6.0576,6.0581,6.0845,0,5.8936,5.9242,5.9276,5.955,5.9699,5.9685,5.9836,5.9945,6.0,6.0135,6.0196,6.0352,6.0288,6.0344,6.0459,6.0529,6.0681,6.0511,6.0704,6.071,6.0667,6.0975,6.1008,6.1251,6.088,6.0886,6.089,0,5.9281,5.9411,5.9699,5.9824,5.9888,6.0023,6.0172,6.0302,6.0423,6.0455,6.0559,6.0566,6.0745,6.0642,6.0889,6.0773,6.0854,6.09,6.091,6.0928,6.0811,6.0998,6.133,6.1365,6.0945,6.0941,6.0937,0,5.9467,5.9715,5.9918,5.9984,6.0137,6.0231,6.03,6.0415,6.0508,6.0639,6.0699,6.0851,6.0933,6.1049,6.1096,6.1017,6.1339,6.1241,6.1369,6.1368,6.1436,6.1431,6.1783,6.1493,6.1493,6.1492,6.1491,0,5.9753,5.9928,6.0003,6.0128,6.0323,6.0361,6.0554,6.0618,6.072,6.0856,6.0855,6.0984,6.1038,6.1175,6.1213,6.141,6.1448,6.1478,6.1485,6.1477,6.1472,6.1529,6.1512,6.1502,6.15,6.1498,6.1496,0,5.9994,6.0051,6.027,6.0395,6.0431,6.0569,6.0677,6.0797,6.0849,6.1022,6.1065,6.1148,6.1309,6.1366,6.1564,6.1588,6.1815,6.1811,6.1773,6.1774,6.1898,6.1884,6.2297,6.2352,6.2028,6.2031,6.2033,0,6.0171,6.0305,6.0443,6.0533,6.0603,6.075,6.0844,6.0886,6.0985,6.1131,6.1234,6.1393,6.1522,6.178,6.1858,6.2008,6.2004,6.2139,6.2027,6.2012,6.2003,6.1993,6.2005,6.2159,6.2162,6.2165,6.2167,0,6.0478,6.0498,6.0634,6.0778,6.089,6.1007,6.112,6.1194,6.1253,6.1364,6.1526,6.1627,6.1825,6.1982,6.2135,6.2206,6.2196,6.2201,6.2238,6.223,6.2201,6.2214,6.1827,6.2192,6.2189,6.2187,6.2186,6.2185,6.069,6.0807,6.0921,6.1071,6.116,6.1264,6.1382,6.1448,6.1584,6.1747,6.1764,6.1938,6.2055,6.2258,6.2335,6.2472,6.2436,6.249,6.2504,6.2516,6.2523,6.2181,6.2501,6.25,6.25,6.2499,6.2499,0,6.0994,6.1066,6.1203,6.1359,6.1477,6.1456,6.1579,6.1679,6.1831,6.194,6.2066,6.2251,6.2403,6.2492,6.2645,6.2737,6.2736,6.2775,6.2767,6.2783,6.2549,6.25,6.2773,6.2773,6.2773,6.2773,6.2773,6.2773,6.1166,6.1361,6.1395,6.1633,6.1705,6.1874,6.1945,6.2041,6.2127,6.2334,6.2459,6.2515,6.2616,6.2774,6.2912,6.2934,6.2989,6.3031,6.305,6.2829,6.28,6.2773,6.2727,6.3044,6.3044,6.3272,6.3275,6.3276]},{"header":{"parameterUnit":"m.s-1","parameterCategory":1,"la1":30.2991,"la2":30.254,"lo1":-89.0895,"lo2":-89.0444,"dy":0.0017,"dx":0.0017,"nx":28,"ny":28,"refTime":"2024-09-27T09:00:00:Z","depth":0,"parameterNumber":3,"parameterNumberName":"V-component_of_WINDS"},"data":[0,0,0,0,0,0,0,0,0,0,0,0,0,0,0,0,0,0,0,0,0,0,0,0,0,0,0,0,0,0,0,0,0,0,0,0,0,0,0,0,0,0,0,0,0,0,0,0,0,0,0,0,0,0,0,0,0,0,2.8585,2.8585,0,2.8644,2.8645,2.8645,2.859,2.8588,2.8586,2.8584,2.8644,2.8647,2.8651,0,0,0,0,0,0,0,0,0,0,0,0,0,2.8421,2.8424,2.8585,2.8585,2.8586,2.8644,2.8645,2.8646,2.8591,2.8588,2.8585,2.8583,2.8642,2.8647,2.8651,0,0,0,0,0,0,0,0,0,0,0,0,0,2.8488,2.8425,2.8584,2.8566,2.8565,2.8644,2.8645,2.8646,2.8591,2.8588,2.8585,2.8581,2.8641,2.8646,2.8652,2.8752,0,0,2.8669,2.8671,0,0,0,0,0,0,0,0,2.8484,2.8494,2.8568,2.8567,2.8566,2.8606,2.8609,2.8682,2.8592,2.8581,2.8584,2.858,2.8634,2.864,2.8658,2.8755,2.8758,2.8669,2.8672,2.8675,2.8676,0,0,0,0,0,0,0,2.8479,2.8491,2.8608,2.8569,2.8568,2.8553,2.8559,2.8623,2.8625,2.8582,2.8578,2.8586,2.8633,2.8653,2.8659,2.8759,2.8669,2.8674,2.8677,2.8679,2.8939,2.8942,0,0,0,0,0,0,2.8477,2.8487,2.8606,2.861,2.8516,2.8559,2.8566,2.8597,2.8625,2.8626,2.8589,2.8583,2.8645,2.8653,2.8661,2.878,2.8675,2.868,2.8683,2.8935,2.894,2.8944,0,0,0,0,0,0,2.8474,2.8488,2.8604,2.8548,2.8561,2.8565,2.8601,2.86,2.862,2.863,2.863,2.8609,2.8643,2.8653,2.873,2.8781,2.8682,2.8687,2.8931,2.8937,2.8942,2.9018,0,0,0,0,0,0,2.8469,2.8487,2.8526,2.8549,2.8564,2.8673,2.8604,2.8603,2.863,2.8623,2.8649,2.865,2.8641,2.8722,2.8735,2.8787,2.8692,2.8926,2.8934,2.894,2.9011,2.9026,2.9038,0,0,0,0,0,2.8464,2.8546,2.8529,2.8543,2.8613,2.8676,2.8684,2.8673,2.8634,2.8673,2.8679,2.8649,2.8773,2.873,2.8745,2.8799,2.8923,2.8932,2.8939,2.9005,2.9023,2.9038,0,0,0,0,0,0,2.8529,2.8548,2.853,2.8621,2.8647,2.8666,2.8715,2.8692,2.8729,2.8722,2.8705,2.8712,2.8792,2.8803,2.8755,2.8896,2.8842,2.8853,2.8887,2.8903,2.8917,2.8912,2.8696,0,0,0,0,0,2.8554,2.8604,2.8617,2.8697,2.8711,2.8711,2.8738,2.8726,2.8752,2.8763,2.8774,2.88,2.8845,2.8875,2.8916,2.9012,2.9016,2.9056,2.907,2.908,2.9091,2.9141,2.9158,2.897,2.897,2.897,0,0,2.8607,2.8623,2.8656,2.8711,2.8729,2.878,2.872,2.8777,2.8814,2.8771,2.8844,2.8853,2.8881,2.8967,2.9006,2.8979,2.9143,2.9091,2.91,2.9104,2.9151,2.9169,2.9184,2.8976,2.8975,2.8974,0,0,2.8728,2.8746,2.8814,2.8833,2.8862,2.8861,2.8878,2.89,2.8904,2.8977,2.8945,2.8989,2.9066,2.9087,2.9107,2.9235,2.9208,2.9249,2.9319,2.9368,2.9383,2.9396,2.944,2.9457,2.9259,2.9259,2.9259,0,2.879,2.8866,2.8851,2.891,2.8935,2.8898,2.8966,2.8985,2.9026,2.9044,2.9013,2.9108,2.9124,2.9214,2.9245,2.9263,2.928,2.9246,2.9382,2.9395,2.9406,2.9449,2.9466,2.9263,2.9263,2.9262,2.9262,0,2.8939,2.8992,2.9043,2.9084,2.9114,2.9177,2.9171,2.9204,2.9189,2.9191,2.9265,2.9282,2.9326,2.9347,2.9334,2.9435,2.9417,2.9384,2.9329,2.9429,2.9469,2.9485,2.927,2.9269,2.9267,2.9266,0,0,2.9105,2.9135,2.9155,2.9172,2.92,2.924,2.9301,2.9344,2.9371,2.94,2.945,2.9516,2.9485,2.9509,2.9497,2.954,2.9638,2.9502,2.9502,2.9526,2.9749,2.9774,2.9793,2.9621,2.9624,2.9626,2.9747,0,2.9227,2.9333,2.9321,2.9421,2.9469,2.9434,2.9487,2.9509,2.9512,2.9553,2.9555,2.9602,2.9559,2.9572,2.9613,2.9618,2.9683,2.9609,2.9666,2.9668,2.9661,2.9814,2.984,2.9953,2.9762,2.9765,2.9767,0,2.9384,2.9418,2.9523,2.9543,2.9563,2.961,2.9648,2.9687,2.9711,2.971,2.9736,2.9716,2.9776,2.9719,2.98,2.975,2.9772,2.9778,2.9782,2.9787,2.9724,2.9822,2.9989,3.0005,2.9791,2.9789,2.9787,0,2.9493,2.9566,2.9638,2.9653,2.9678,2.9712,2.9724,2.9745,2.9771,2.9804,2.982,2.9859,2.9881,2.9911,2.9902,2.9862,2.9985,2.9927,2.9985,2.9985,3.0013,3.0011,3.0185,3.0028,3.0027,3.0027,3.0027,0,2.963,2.9696,2.9687,2.9731,2.9803,2.9788,2.986,2.9867,2.9886,2.993,2.9902,2.9944,2.9929,2.997,2.9963,3.0031,3.0041,3.0041,3.0038,3.0044,3.0044,3.0058,3.005,3.0031,3.003,3.003,3.0029,0,2.9765,2.9762,2.9838,2.9855,2.986,2.9913,2.9927,2.9968,2.9968,3.0024,3.0036,3.0037,3.0083,3.0077,3.0129,3.0124,3.0208,3.0196,3.02,3.0197,3.0255,3.0249,3.0444,3.0468,3.0296,3.0297,3.0299,0,2.9853,2.9903,2.9925,2.9952,2.9966,3.0012,3.0038,3.0025,3.0053,3.0083,3.0121,3.0164,3.0199,3.0275,3.0279,3.0318,3.0306,3.0372,3.0312,3.0315,3.0307,3.0304,3.0308,3.0384,3.0386,3.0387,3.0389,0,3.0009,3.0004,3.0044,3.0082,3.0114,3.0144,3.0171,3.0195,3.0184,3.0217,3.0264,3.0291,3.0343,3.0387,3.0423,3.0434,3.041,3.0407,3.0422,3.0428,3.0428,3.0428,3.0232,3.0403,3.0402,3.04,3.04,3.0399,3.0122,3.0164,3.0186,3.023,3.0249,3.0274,3.0313,3.0318,3.0357,3.0399,3.0389,3.0442,3.0463,3.0509,3.0524,3.0565,3.0541,3.0563,3.0568,3.0574,3.0581,3.0422,3.0571,3.0571,3.0571,3.057,3.057,0,3.0276,3.0288,3.0329,3.0367,3.0402,3.0375,3.0403,3.0433,3.0481,3.0502,3.0537,3.059,3.0632,3.0639,3.0678,3.071,3.0699,3.072,3.0718,3.072,3.06,3.0583,3.0728,3.0728,3.0728,3.0728,3.0728,3.0728,3.0361,3.043,3.0428,3.0505,3.0516,3.0568,3.0586,3.0609,3.0626,3.0687,3.0722,3.0726,3.0742,3.0782,3.0819,3.0819,3.0835,3.0861,3.0857,3.0745,3.0729,3.0714,3.0698,3.0864,3.0864,3.0974,3.0975,3.0975]}]]